Weather History for Punta Gorda, FL

Change the Weather History Date:

Saturday, August 17, 2013

  Actual Average Record
Temperature  
Mean Temperature 82 °F -  
Max Temperature 93 °F 88 °F 95 °F (1997)
Min Temperature 71 °F 72 °F 71 °F (2013)
Cooling Degree Days 17    
Growing Degree Days 32 (Base 50)    
Moisture  
Dew Point 74 °F    
Average Humidity 84    
Maximum Humidity 97    
Minimum Humidity 54    
Precipitation  
Precipitation 0.84 in - - ()
Sea Level Pressure  
Sea Level Pressure 30.05 in    
Wind  
Wind Speed 6 mph (ESE)    
Max Wind Speed 29 mph    
Max Gust Speed 37 mph    
Visibility 9 miles    
Events Rain    
Averages and records for this station are not official NWS values.
T = Trace of Precipitation, MM = Missing Value Source: NWS Daily Summary

Daily Weather History Graph

Daily Weather History Graph

Search for Another Location

Airport:

Trip Planner

Search our weather history database for the weather conditions in past years. The results will help you decide how hot, cold, wet, or windy it might be!

Date:

Astronomy

Aug. 17, 2013 Rise Set
Actual Time 7:00 AM EDT 8:02 PM EDT
Civil Twilight 6:36 AM EDT 8:27 PM EDT
Nautical Twilight 6:07 AM EDT 8:55 PM EDT
Astronomical Twilight 5:38 AM EDT 9:25 PM EDT
Moon 5:08 PM EDT (8/17) 3:12 AM EDT (8/17)
Length of Visible Light 13h 50m
Length of Day
13h 02m
Waxing Gibbous, 84% of the Moon is Illuminated
Aug 17
Waxing Gibbous
Aug 20
Full
Aug 28
Last Quarter
Sep 5
New
Sep 12
First Quarter

Hourly Weather History & Observations

Time (EDT) Temp. Heat Index Dew Point Humidity Pressure Visibility Wind Dir Wind Speed Gust Speed Precip Events Conditions
12:53 AM 78.1 °F - 73.9 °F 87% 30.06 in 10.0 mi ENE 3.5 mph - N/A   Partly Cloudy
1:53 AM 78.1 °F - 75.0 °F 90% 30.06 in 10.0 mi Calm Calm - N/A   Clear
2:53 AM 77.0 °F - 75.0 °F 94% 30.05 in 10.0 mi NE 4.6 mph - N/A   Clear
3:53 AM 77.0 °F - 75.0 °F 94% 30.04 in 10.0 mi East 4.6 mph - N/A   Clear
4:53 AM 75.9 °F - 75.0 °F 97% 30.03 in 10.0 mi ENE 3.5 mph - N/A   Clear
5:53 AM 75.9 °F - 73.9 °F 94% 30.04 in 10.0 mi Calm Calm - N/A   Clear
6:53 AM 75.9 °F - 75.0 °F 97% 30.04 in 10.0 mi East 4.6 mph - N/A   Clear
7:53 AM 79.0 °F - 77.0 °F 94% 30.05 in 10.0 mi East 3.5 mph - N/A   Clear
8:53 AM 84.0 °F 94.8 °F 78.1 °F 82% 30.07 in 10.0 mi SE 6.9 mph - N/A   Clear
9:53 AM 86.0 °F 96.9 °F 77.0 °F 74% 30.07 in 10.0 mi SE 11.5 mph - N/A   Clear
10:53 AM 88.0 °F 98.5 °F 75.9 °F 67% 30.08 in 10.0 mi SSE 8.1 mph - N/A   Partly Cloudy
11:53 AM 91.0 °F 101.6 °F 75.0 °F 59% 30.07 in 10.0 mi SSE 10.4 mph - N/A   Scattered Clouds
12:53 PM 91.9 °F 103.2 °F 75.0 °F 58% 30.06 in 10.0 mi SE 10.4 mph - N/A   Partly Cloudy
1:53 PM 93.0 °F 103.2 °F 73.9 °F 54% 30.04 in 10.0 mi SE 8.1 mph - N/A   Partly Cloudy
2:53 PM 93.0 °F 103.2 °F 73.9 °F 54% 30.02 in 10.0 mi SE 10.4 mph - N/A   Mostly Cloudy
3:53 PM 88.0 °F 98.5 °F 75.9 °F 67% 30.01 in 10.0 mi WNW 9.2 mph - N/A   Mostly Cloudy
4:53 PM 88.0 °F 101.3 °F 78.1 °F 72% 30.01 in 10.0 mi WNW 11.5 mph - N/A   Clear
5:49 PM 78.8 °F - 73.4 °F 83% 30.08 in 6.0 mi SSE 27.6 mph 35.7 mph 0.00 in Rain Light Rain
5:53 PM 75.9 °F - 73.0 °F 91% 30.08 in 2.5 mi SSE 28.8 mph 36.8 mph 0.02 in Rain Light Rain
6:00 PM 71.6 °F - 69.8 °F 94% 30.08 in 0.8 mi SE 17.3 mph 36.8 mph 0.20 in Rain Heavy Rain
6:20 PM 73.4 °F - 71.6 °F 94% - 1.2 mi SSW 9.2 mph - 0.69 in Rain Heavy Rain
6:27 PM 73.4 °F - 71.6 °F 94% - 2.0 mi South 5.8 mph - 0.74 in Rain Heavy Rain
6:38 PM 73.4 °F - 71.6 °F 94% - 6.0 mi Calm Calm - 0.76 in Rain Light Rain
6:53 PM 75.0 °F - 72.0 °F 90% - 10.0 mi Calm Calm - 0.76 in Rain Light Rain
7:53 PM 75.9 °F - 73.9 °F 94% - 10.0 mi North 4.6 mph - 0.04 in Rain Light Rain
8:53 PM 77.0 °F - 73.9 °F 90% - 10.0 mi Calm Calm - 0.02 in   Scattered Clouds
9:53 PM 77.0 °F - 75.0 °F 94% - 10.0 mi NNE 3.5 mph - N/A   Clear
10:53 PM 75.9 °F - 73.9 °F 94% - 10.0 mi ENE 5.8 mph - N/A   Clear
11:53 PM 75.9 °F - 73.9 °F 94% - 10.0 mi East 5.8 mph - N/A   Clear